Regional Weather Roundup
Issued by NWS

Home | Current Version | Previous Version | Graphics & Text | Print | Product List | Glossary On
Versions: 1 2 3 4 5 6 7 8 9 10 11 12 13 14 15 16 17 18 19 20 21 22 23 24 25 26 27 28 29 30 31 32 33 34 35 36 37 38 39 40 41 42 43 44 45 46 47 48 49
000
ASUS43 KDMX 280907
RWRIA

WEATHER ROUNDUP FOR IOWA
NATIONAL WEATHER SERVICE DES MOINES IA
400 AM CDT THU MAY 28 2015

NOTE: "FAIR" INDICATES FEW OR NO CLOUDS BELOW 12,000 FEET WITH NO
SIGNIFICANT WEATHER AND/OR OBSTRUCTIONS TO VISIBILITY.

* - THESE STATIONS ARE NOT NWS STATIONS...THUS NOT UNDER NWS
QUALITY CONTROL.  THEY ALSO DO NOT REPORT WEATHER SUCH
AS PRECIPITATION OR FOG.

IAZ001>003-012>014-020>022-031>034-043>046-281000-
   NORTHWEST IOWA

CITY           SKY/WX    TMP DP  RH WIND       PRES   REMARKS
CARROLL *      CLOUDY    59  55  88 S6        30.08S
CHEROKEE *     CLEAR     54  54 100 CALM      30.06S
DENISON *      PTCLDY    61  55  82 S8        30.05F
LE MARS *      CLEAR     61  54  77 S6        30.05S
ORANGE CITY *  CLEAR     61  52  72 S3        30.05S
SHELDON *      CLEAR     59  52  77 SE6       30.04F
SIOUX CITY     PTCLDY    59  52  77 E8        30.04S
SPENCER        CLEAR     61  52  72 S3        30.06F
STORM LAKE *   CLEAR     59  52  77 S10       30.08S
$$

IAZ055>058-069>071-079>083-090>094-281000-
   SOUTHWEST IOWA

CITY           SKY/WX    TMP DP  RH WIND       PRES   REMARKS
ATLANTIC *     CLEAR     55  55 100 N3        30.08F
AUDUBON *      CLEAR     54  52  94 CALM      30.10F
CLARINDA *     CLEAR     57  57 100 CALM      30.09F
COUNCIL BLFS * CLEAR     63  55  77 E5        30.06F
CRESTON *      CLEAR     61  57  88 SE7       30.10F
HARLAN  *      CLEAR     55  55 100 CALM      30.11F
LAMONI         PTCLDY    66  56  70 S5        30.11F
RED OAK *      CLEAR     61  55  82 CALM      30.07F
SHENANDOAH *   CLEAR     63  57  82 SE5       30.06F
$$

IAZ047>049-059>061-072>074-084-281000-
   CENTRAL IOWA

CITY           SKY/WX    TMP DP  RH WIND       PRES   REMARKS
AMES           CLEAR     58  56  93 SE6       30.10F
ANKENY *       CLEAR     59  59 100 SE3       30.10F
CHARITON *     CLEAR     63  57  82 SE7       30.11F
DES MOINES     PTCLDY    64  56  75 S8        30.09F
GRINNELL*      CLEAR     63  55  77 S8        30.14S
KNOXVILLE *    CLEAR     63  55  77 SE7       30.10F
MARSHALLTOWN   CLEAR     63  56  78 S6        30.12R
PELLA *        CLEAR     61  59  94 SE3       30.13F
PERRY *          N/A     59  57  94 SE6       30.09F
$$

IAZ004>006-015-016-023>025-035-036-281000-
   NORTH CENTRAL IOWA

CITY           SKY/WX    TMP DP  RH WIND       PRES   REMARKS
ALGONA *       CLEAR     61  57  88 S8        30.08S
CLARION *      CLEAR     61 N/A N/A S9        30.09F
ESTHERVILLE    CLEAR     57  53  86 S8        30.06S
FORT DODGE *   CLEAR     61  54  77 S3        30.09S
MASON CITY     CLEAR     59  55  87 S7        30.11R
FOREST CITY *  CLEAR     54  54 100 CALM      30.09S
IOWA FALLS *     N/A     63  57  82 S7        30.12S
$$

IAZ007>011-017>019-026>030-037>042-050>054-066-281000-
   NORTHEAST IOWA

CITY           SKY/WX    TMP DP  RH WIND       PRES   REMARKS
CEDAR RAPIDS   CLEAR     59  57  93 S5        30.13R
CHARLES CITY * CLEAR     61  59  94 S8        30.12R
CLINTON *      CLEAR     61  55  82 S6        30.17R
DECORAH *      PTCLDY    63  55  77 S3        30.11R
DUBUQUE        CLEAR     58  54  86 SW6       30.14R
MONTICELLO *   CLEAR     59  59 100 CALM      30.14R
OELWEIN *      CLEAR     61  57  88 S8        30.14R
WATERLOO       CLEAR     63  56  78 S7        30.11R
$$

IAZ064-065-067-068-078-281000-
   EAST CENTRAL IOWA

CITY           SKY/WX    TMP DP  RH WIND       PRES   REMARKS
DAVENPORT      CLEAR     60  55  83 S7        30.16R
IOWA CITY      CLEAR     59  57  93 CALM      30.15R
MT. PLEASANT * CLEAR     61  57  88 CALM      30.15R
MUSCATINE *    CLEAR     59  57  94 CALM      30.15R
QUAD CITIES    CLEAR     63  55  75 CALM      30.15R
$$

IAZ062-063-075>077-085>089-095>099-281000-
   SOUTHEAST IOWA

CITY           SKY/WX    TMP DP  RH WIND       PRES   REMARKS
BURLINGTON     CLEAR     60  59  96 CALM      30.14S
FAIRFIELD *    CLEAR     64  55  72 S6        30.14S
FORT MADISON *   N/A     63  57  82 CALM      30.15S
KEOKUK *       CLEAR     59  57  94 CALM      30.13S
OSKALOOSA *      N/A     59  55  88 S6        30.13F
CENTERVILLE *  CLEAR     59  59 100 SE6       30.13F
OTTUMWA        CLEAR     61  56  83 S6        30.13S
WASHINGTON *   CLEAR     59  57  94 S8        30.15S
$$

ABBREVIATIONS USED IN REMARKS
   TC - TEMPERATURES IN CELSIUS
  WCI - WIND CHILL INDEX
   HX - HEAT INDEX
  VSB - VISIBILITY
$$




USA.gov is the U.S. government's official web portal to all federal, state and local government web resources and services.